TimeCST,TemperatureF,Dew PointF,Humidity,Sea Level PressureIn,VisibilityMPH,Wind Direction,Wind SpeedMPH,Gust SpeedMPH,PrecipitationIn,Events,Conditions,WindDirDegrees,DateUTC
12:53 AM,19.0,14.0,81,30.35,10.0,Calm,Calm,-,N/A,,Clear,0,2013-01-15 06:53:00
1:53 AM,17.1,14.0,88,30.35,10.0,Calm,Calm,-,N/A,,Clear,0,2013-01-15 07:53:00
2:53 AM,17.6,14.0,86,30.29,10.0,NNW,3.5,-,N/A,,Clear,340,2013-01-15 08:53:00
3:53 AM,17.1,12.9,84,30.31,10.0,North,3.5,-,N/A,,Clear,10,2013-01-15 09:53:00
4:53 AM,16.0,12.9,88,30.32,10.0,Calm,Calm,-,N/A,,Clear,0,2013-01-15 10:53:00
5:53 AM,16.0,12.0,84,30.31,10.0,NNW,3.5,-,N/A,,Clear,340,2013-01-15 11:53:00
6:53 AM,17.1,12.9,84,30.31,10.0,Calm,Calm,-,N/A,,Clear,0,2013-01-15 12:53:00
7:53 AM,19.0,12.9,77,30.32,10.0,Calm,Calm,-,N/A,,Clear,0,2013-01-15 13:53:00
8:53 AM,19.0,14.0,81,30.31,10.0,NW,6.9,-,N/A,,Mostly Cloudy,310,2013-01-15 14:53:00
9:53 AM,19.9,15.1,81,30.36,10.0,NW,5.8,-,N/A,,Overcast,310,2013-01-15 15:53:00
10:53 AM,21.0,15.1,78,30.34,10.0,Calm,Calm,-,N/A,,Overcast,0,2013-01-15 16:53:00
11:53 AM,21.9,16.0,78,30.29,10.0,SE,4.6,-,0.00,,Overcast,130,2013-01-15 17:53:00
12:53 PM,24.1,19.0,81,30.24,5.0,ESE,6.9,-,0.00,Snow,Light Snow,120,2013-01-15 18:53:00
1:13 PM,26.6,19.4,74,30.17,6.0,SE,8.1,-,0.00,Snow,Light Snow,130,2013-01-15 19:13:00
1:21 PM,24.8,19.4,80,30.17,7.0,SSE,9.2,-,0.00,Snow,Light Snow,150,2013-01-15 19:21:00
1:53 PM,27.0,21.0,78,30.21,10.0,ESE,4.6,-,0.00,,Mostly Cloudy,120,2013-01-15 19:53:00
2:53 PM,30.9,21.9,69,30.19,10.0,NNE,4.6,-,N/A,,Mostly Cloudy,30,2013-01-15 20:53:00
3:53 PM,28.9,21.0,72,30.22,10.0,NE,4.6,-,N/A,,Overcast,40,2013-01-15 21:53:00
4:53 PM,28.4,19.4,69,30.17,10.0,North,4.6,-,N/A,,Overcast,10,2013-01-15 22:53:00
5:53 PM,28.0,19.9,72,30.22,10.0,NW,3.5,-,N/A,,Overcast,310,2013-01-15 23:53:00
6:53 PM,28.0,19.9,72,30.22,10.0,NW,3.5,-,N/A,,Overcast,320,2013-01-16 00:53:00
7:53 PM,27.0,19.0,72,30.21,10.0,NW,3.5,-,N/A,,Scattered Clouds,310,2013-01-16 01:53:00
8:53 PM,27.0,19.0,72,30.19,10.0,NW,4.6,-,N/A,,Mostly Cloudy,320,2013-01-16 02:53:00
9:53 PM,27.0,19.9,75,30.20,10.0,West,5.8,-,N/A,,Overcast,280,2013-01-16 03:53:00
10:53 PM,26.1,19.0,75,30.19,10.0,NW,5.8,-,N/A,,Mostly Cloudy,320,2013-01-16 04:53:00
11:53 PM,24.1,19.0,81,30.19,10.0,WNW,5.8,-,N/A,,Clear,300,2013-01-16 05:53:00